軌道要素
Epoch 2021 July 5.0 TT = JDT 2459400.5
T 2021 Jan. 20.46691 TT Rudenko
q 1.4365615 (2000.0) P Q
n 0.14940056 Peri. 357.04052 +0.32421356 -0.93807430
a 3.5175037 Node 74.01721 +0.87051029 +0.24534286
e 0.5915963 Incl. 7.29529 +0.37026665 +0.24458840
P 6.60
From 187 observations 2020 Sept. 9-2021 Mar. 10, mean residual 0".7.
|